Retour au catalogue

ARIANE 5 R/B

ActifHEO
NORAD 33156·ROCKET BODY·🇫🇷 France

Lancé Jul 7, 2008 depuis Guiana Space Centre

Loading…

Prochains Passages (prochaines 24 heures)

TLE

FraisSource: Space-Track

Époque: Sep 14, 2026, 13:47 UTC

1 33156U 08034D   26257.57471153  .00001033  00000-0  62033-3 0  9992
2 33156   1.9970  49.3825 7090594 202.6018  96.8437  2.50170446158202

Suivez ARIANE 5 R/B en temps réel avec AllMySat

Download on the App Store